Stations météo

Publicité
Barth, Allemagne (10180): Température de l'air & dewpoint: 12.09.2018 17:00:00 - 18.09.2018 17:00:00 (CEST)Barth, Allemagne (10180): Température de l'air 5cm & Température de l'air -5cm: 12.09.2018 17:00:00 - 18.09.2018 17:00:00 (CEST)Barth, Allemagne (10180): Température de l'air -20cm & Température de l'air -100cm: 12.09.2018 17:00:00 - 18.09.2018 17:00:00 (CEST)Barth, Allemagne (10180): Vitesse du vent & gusts: 12.09.2018 17:00:00 - 18.09.2018 17:00:00 (CEST)Barth, Allemagne (10180): Direction du vent: 12.09.2018 17:00:00 - 18.09.2018 17:00:00 (CEST)Barth, Allemagne (10180): reduced air pressure: 12.09.2018 17:00:00 - 18.09.2018 17:00:00 (CEST)Barth, Allemagne (10180): visibility: 12.09.2018 17:00:00 - 18.09.2018 17:00:00 (CEST)Barth, Allemagne (10180): Ensoleillement: 12.09.2018 17:00:00 - 18.09.2018 17:00:00 (CEST)Barth, Allemagne (10180): Quantités de précipitations: 12.09.2018 17:00:00 - 18.09.2018 17:00:00 (CEST)
Date & Time tt [°C] td [°C] tt 5cm [°C] tt -5cm [°C] tt -20cm [°C] tt -100cm [°C] ff [km/h] ff [knt] fx [km/h] fx [knt] dd ppp [hPa] vv [km] sd [min] rr [mm]
18.09.2018 17:00:00 28,3 6,5 28,5 23,8 18,8 15,6 19 11 42 23 S 1011,1 16 60 0,0
18.09.2018 16:00:00 28,3 9,2 29,5 24,2 18,2 15,6 19 11 39 21 S 1011,5 17 60 0,0
18.09.2018 15:00:00 28,3 6,1 30,1 24,0 17,5 15,6 23 12 39 21 S 1012,1 19 60 0,0
18.09.2018 14:00:00 27,7 10,1 29,9 23,5 16,7 15,6 23 12 42 23 S 1012,7 10 60 0,0
18.09.2018 13:00:00 26,8 9,6 28,8 22,3 15,9 15,6 23 13 36 19 S 1013,5 15 60 0,0
18.09.2018 12:00:00 25,3 9,9 27,3 20,6 15,1 15,6 16 9 27 14 S 1014,1 18 60 0,0
18.09.2018 11:00:00 23,0 9,9 25,4 18,2 14,5 15,6 10 6 19 10 S 1014,6 21 60 0,0
18.09.2018 10:00:00 19,4 10,3 20,8 15,5 14,2 15,6 11 6 17 9 SSE 1015,1 14 60 0,0
18.09.2018 09:00:00 16,1 9,8 16,9 13,3 14,1 15,6 8 4 14 8 SSE 1015,3 22 60 0,0
18.09.2018 08:00:00 13,1 8,5 12,0 11,7 14,3 15,6 10 5 14 8 SSE 1015,2 27 18 0,0
18.09.2018 07:00:00 12,6 8,6 9,7 11,5 14,5 15,6 11 6 14 8 SSE 1015,2 23 0 0,0
18.09.2018 06:00:00 10,3 7,8 5,9 11,7 14,8 15,6 6 4 14 8 SSE 1015,6 18 0 0,0
18.09.2018 05:00:00 12,7 9,2 9,4 11,9 15,1 15,6 10 5 14 8 SSE 1015,8 26 0 0,0
18.09.2018 04:00:00 11,3 9,4 6,8 12,3 15,4 15,6 5 3 10 5 SSE 1016,0 18 0 0,0
18.09.2018 03:00:00 11,4 9,4 7,1 12,8 15,8 15,6 8 5 11 6 SSE 1016,3 17 0 0,0
18.09.2018 02:00:00 11,3 9,5 7,4 13,4 16,1 15,6 8 4 10 6 SSE 1016,6 17 0 0,0
18.09.2018 01:00:00 11,5 9,9 8,0 13,9 16,5 15,6 0 0 5 3 N 1017,0 16 0 0,0
18.09.2018 00:00:00 11,0 9,8 8,1 14,5 16,8 15,6 0 0 5 3 N 1017,3 19 0 0,0
17.09.2018 23:00:00 11,3 9,2 8,9 15,1 17,2 15,6 0 0 6 3 N 1017,6 20 0 0,0
17.09.2018 22:00:00 11,9 9,9 8,4 15,8 17,7 15,6 3 1 4 2 SSE 1017,9 31 0 0,0
17.09.2018 21:00:00 13,3 10,4 8,9 16,9 18,1 15,6 0 0 4 2 N 1017,9 43 0 0,0
17.09.2018 20:00:00 14,7 10,7 10,7 18,4 18,3 15,7 3 2 4 2 E 1017,7 35 0 0,0
17.09.2018 19:00:00 18,6 11,0 16,3 20,1 18,4 15,7 3 1 11 6 SE 1017,5 41 23 0,0
17.09.2018 18:00:00 20,5 10,7 20,1 21,3 18,3 15,7 8 4 20 11 W 1017,6 52 46 0,0
17.09.2018 17:00:00 21,4 11,0 22,3 22,3 18,0 15,7 13 7 23 12 WNW 1017,8 35 60 0,0
17.09.2018 16:00:00 22,3 11,7 24,6 22,8 17,5 15,7 15 8 23 13 W 1018,0 20 60 0,0
17.09.2018 15:00:00 22,0 11,0 24,8 22,7 16,9 15,7 16 9 24 13 WNW 1018,1 17 60 0,0
17.09.2018 14:00:00 22,3 11,1 25,2 22,2 16,2 15,7 15 8 26 14 WSW 1018,1 19 60 0,0
17.09.2018 13:00:00 22,0 10,8 25,1 21,0 15,5 15,7 17 9 32 17 SW 1018,6 20 60 0,0
17.09.2018 12:00:00 20,9 10,7 23,0 19,0 14,9 15,7 20 11 32 17 WSW 1018,9 13 60 0,0
17.09.2018 11:00:00 19,4 10,0 21,2 17,3 14,4 15,7 19 11 26 14 WSW 1018,9 18 60 0,0
17.09.2018 10:00:00 17,5 9,6 18,6 15,4 14,1 15,7 14 8 21 11 SW 1018,8 18 57 0,0
17.09.2018 09:00:00 15,5 9,6 15,7 13,4 14,1 15,7 10 5 21 12 SSW 1018,4 28 1 0,0
17.09.2018 08:00:00 13,9 8,6 13,5 12,5 14,2 15,7 10 6 18 10 SSW 1018,3 30 0 0,0
17.09.2018 07:00:00 13,4 8,1 12,4 12,1 14,3 15,7 11 6 16 9 SSW 1018,5 35 0 0,0
17.09.2018 06:00:00 12,3 7,8 10,0 12,0 14,5 15,7 12 6 18 10 SSW 1018,5 30 0 0,0
17.09.2018 05:00:00 12,3 8,1 9,9 12,3 14,8 15,7 9 5 17 9 SSW 1018,0 31 0 0,0
17.09.2018 04:00:00 12,9 8,1 10,5 12,5 15,0 15,7 9 5 14 8 S 1018,1 34 0 0,0
17.09.2018 03:00:00 13,6 8,3 11,1 13,2 15,2 15,7 10 5 17 9 S 1018,7 38 0 0,0
17.09.2018 02:00:00 14,6 8,7 13,2 13,6 15,4 15,7 12 6 17 9 S 1018,9 39 0 0,0
17.09.2018 01:00:00 15,6 8,8 14,0 14,0 15,6 15,7 11 6 17 9 S 1019,1 43 0 0,0
17.09.2018 00:00:00 15,2 8,9 13,6 14,0 15,9 15,7 9 5 16 9 S 1019,4 45 0 0,0
16.09.2018 23:00:00 13,9 8,7 11,4 14,1 16,2 15,7 9 5 13 7 S 1019,6 43 0 0,0
16.09.2018 22:00:00 12,5 8,5 9,4 14,7 16,6 15,8 6 4 12 6 S 1020,2 40 0 0,0
16.09.2018 21:00:00 15,5 8,9 9,4 15,7 16,9 15,8 6 4 10 5 S 1020,3 52 0 0,0
16.09.2018 20:00:00 17,4 8,5 14,7 16,8 17,1 15,8 8 5 16 9 S 1020,2 58 0 0,0
16.09.2018 19:00:00 18,4 8,8 16,2 18,2 17,2 15,8 11 6 16 9 S 1020,0 64 42 0,0
16.09.2018 18:00:00 19,4 8,8 19,6 19,3 17,1 15,8 14 8 28 15 SSW 1020,3 36 48 0,0
16.09.2018 17:00:00 19,6 8,0 21,0 20,4 16,8 15,8 21 12 31 17 SSW 1020,9 26 34 0,0
16.09.2018 16:00:00 19,1 8,7 19,9 20,8 16,4 15,8 21 11 31 17 SW 1021,5 39 55 0,0
16.09.2018 15:00:00 19,0 9,7 21,5 20,9 15,8 15,8 15 8 29 16 SW 1022,1 19 60 0,0
16.09.2018 14:00:00 18,8 10,0 23,0 19,9 15,2 15,8 19 10 29 15 SW 1022,7 15 53 0,0
16.09.2018 13:00:00 17,2 9,6 18,7 18,4 14,7 15,8 16 9 22 12 SW 1023,1 27 38 0,0
16.09.2018 12:00:00 16,7 9,0 18,0 17,6 14,2 15,8 14 8 26 14 WSW 1023,7 43 49 0,0
16.09.2018 11:00:00 15,9 9,1 18,2 16,1 13,7 15,8 16 9 23 12 SW 1024,0 18 60 0,0
16.09.2018 10:00:00 14,5 10,3 16,2 14,2 13,4 15,8 13 7 19 10 SW 1024,1 19 60 0,0
16.09.2018 09:00:00 12,2 9,6 12,7 12,2 13,4 15,8 12 6 20 11 WSW 1024,0 21 60 0,0
16.09.2018 08:00:00 10,3 8,6 10,0 10,5 13,6 15,8 10 5 15 8 SW 1023,8 24 48 0,0
16.09.2018 07:00:00 8,6 7,9 4,5 10,3 13,9 15,8 2 1 11 6 SE 1023,5 13 0 0,0
16.09.2018 06:00:00 8,7 7,9 5,6 11,0 14,1 15,8 2 1 8 4 SSE 1023,2 12 0 0,0
16.09.2018 05:00:00 10,3 9,0 8,1 11,9 14,3 15,8 0 0 6 4 N 1023,1 25 0 0,0
16.09.2018 04:00:00 10,9 9,1 9,9 12,4 14,5 15,8 7 4 16 9 SW 1023,1 36 0 0,0
16.09.2018 03:00:00 12,0 10,0 11,2 12,5 14,6 15,8 9 5 14 8 SW 1023,2 44 0 0,0
16.09.2018 02:00:00 10,5 9,5 7,9 12,5 14,8 15,8 3 2 9 5 S 1023,0 15 0 0,0
16.09.2018 01:00:00 12,8 10,4 11,9 13,0 15,0 15,8 8 4 15 8 WNW 1023,1 38 0 0,0
16.09.2018 00:00:00 12,3 9,9 11,0 13,0 15,3 15,9 9 5 13 7 SW 1022,6 48 0 0,0
15.09.2018 23:00:00 11,6 9,3 9,2 13,3 15,5 15,9 8 4 13 7 WSW 1022,2 61 0 0,0
15.09.2018 22:00:00 12,5 10,1 11,4 13,8 15,8 15,9 9 5 13 7 SW 1022,0 70 0 0,0
15.09.2018 21:00:00 12,7 10,2 10,9 14,5 16,0 15,9 10 5 18 10 W 1021,8 42 0 0,1
15.09.2018 20:00:00 14,0 10,3 12,6 15,1 16,3 15,9 12 6 18 10 W 1021,4 16 0 0,0
15.09.2018 19:00:00 14,0 11,1 12,7 15,8 16,5 15,9 10 6 14 8 W 1021,0 41 0 0,0
15.09.2018 18:00:00 13,9 11,5 13,1 16,4 16,6 15,9 12 7 30 16 W 1020,6 36 0 2,0
15.09.2018 17:00:00 14,7 11,9 13,6 17,8 16,6 15,9 20 11 39 21 W 1020,5 8 0 0,2
15.09.2018 16:00:00 16,2 9,2 16,5 18,7 16,3 15,9 27 15 46 25 WSW 1019,8 28 13 0,0
15.09.2018 15:00:00 17,8 10,8 20,1 18,9 16,0 15,9 33 18 49 26 W 1019,4 12 55 0,0
15.09.2018 14:00:00 17,0 10,8 18,5 18,1 15,7 15,9 29 15 43 23 WSW 1019,1 16 28 0,0
15.09.2018 13:00:00 16,6 11,3 18,1 17,6 15,3 15,9 26 14 44 24 WSW 1018,8 20 14 0,0
15.09.2018 12:00:00 16,6 10,4 17,8 16,7 15,0 15,9 27 15 45 25 W 1018,5 19 18 0,0
15.09.2018 11:00:00 16,7 11,6 18,5 16,4 14,7 15,9 29 16 46 25 W 1018,2 18 33 0,0
15.09.2018 10:00:00 16,0 11,2 17,4 15,0 14,6 15,9 25 13 38 20 WSW 1017,7 20 42 0,0
15.09.2018 09:00:00 13,8 9,6 13,8 13,4 14,6 15,9 17 9 29 15 SW 1017,1 26 1 0,0
15.09.2018 08:00:00 13,0 9,0 12,7 12,9 14,7 15,9 17 9 25 13 SW 1016,8 18 17 0,0
15.09.2018 07:00:00 11,9 8,4 10,2 12,7 14,9 15,9 14 8 22 12 SW 1016,5 18 0 0,0
15.09.2018 06:00:00 12,3 8,3 11,0 13,2 15,1 15,9 13 7 19 11 SW 1016,1 20 0 0,0
15.09.2018 05:00:00 12,5 8,4 11,4 13,3 15,3 15,9 13 7 16 9 SW 1016,1 23 0 0,0
15.09.2018 04:00:00 11,3 8,2 9,5 13,4 15,5 16,0 4 2 10 6 SW 1016,5 23 0 0,0
15.09.2018 03:00:00 12,0 8,5 10,2 13,7 15,7 16,0 7 4 10 6 S 1016,8 24 0 0,0
15.09.2018 02:00:00 12,3 8,6 9,9 14,1 15,9 16,0 6 3 10 5 S 1017,2 26 0 0,0
15.09.2018 01:00:00 12,5 8,7 9,6 14,5 16,2 16,0 5 3 7 4 S 1017,4 35 0 0,0
15.09.2018 00:00:00 12,8 8,7 10,1 15,0 16,4 16,0 3 2 8 4 S 1017,5 39 0 0,0
14.09.2018 23:00:00 12,8 9,4 11,4 15,5 16,6 16,0 4 2 6 4 S 1017,9 30 0 0,0
14.09.2018 22:00:00 13,0 8,8 11,7 15,9 16,9 16,0 3 1 4 2 SSE 1018,2 39 0 0,0
14.09.2018 21:00:00 12,6 9,0 11,3 16,4 17,2 16,0 0 0 3 2 N 1018,3 38 0 0,0
14.09.2018 20:00:00 13,7 9,1 11,9 17,3 17,4 16,0 2 1 4 2 SE 1018,2 39 0 0,0
14.09.2018 19:00:00 14,5 7,8 11,8 18,3 17,5 16,0 2 1 17 9 N 1018,3 43 19 0,0
14.09.2018 18:00:00 17,6 7,2 18,8 19,6 17,4 16,0 11 6 19 11 WNW 1018,5 29 58 0,0
14.09.2018 17:00:00 17,5 7,8 17,2 20,4 17,2 16,0 15 8 30 16 WNW 1018,6 34 22 0,0
14.09.2018 16:00:00 19,6 6,2 22,8 21,5 16,7 16,0 17 9 27 15 SSW 1019,0 33 60 0,0
14.09.2018 15:00:00 19,3 5,4 23,2 21,5 16,1 16,0 17 9 29 16 SSW 1019,4 29 56 0,0
14.09.2018 14:00:00 19,1 7,5 23,0 21,1 15,4 16,0 17 9 28 15 SW 1020,0 31 59 0,0
14.09.2018 13:00:00 18,4 7,1 22,6 20,0 14,6 16,1 14 8 26 14 WSW 1020,3 28 60 0,0
14.09.2018 12:00:00 17,9 7,7 21,1 18,0 13,9 16,1 12 7 22 12 WSW 1020,5 40 60 0,0
14.09.2018 11:00:00 17,0 9,5 19,7 15,9 13,3 16,1 14 8 23 13 WSW 1020,5 21 60 0,0
14.09.2018 10:00:00 15,1 10,2 17,7 13,7 13,0 16,1 15 8 20 11 WSW 1020,4 22 60 0,0
14.09.2018 09:00:00 12,9 10,3 14,0 11,5 12,9 16,1 9 5 15 8 WSW 1020,2 23 60 0,0
14.09.2018 08:00:00 8,4 6,4 8,3 9,4 13,1 16,1 4 2 6 3 SSW 1020,0 18 53 0,0
14.09.2018 07:00:00 5,1 4,5 1,4 9,0 13,4 16,1 4 2 5 3 S 1019,7 0,6 0 0,0
14.09.2018 06:00:00 6,5 6,0 1,1 9,3 13,7 16,1 4 2 6 3 S 1019,5 14 0 0,0
14.09.2018 05:00:00 5,5 4,8 1,5 9,8 14,0 16,1 2 1 3 2 SSE 1019,6 10 0 0,0
14.09.2018 04:00:00 7,3 6,4 2,2 10,2 14,4 16,1 2 1 6 4 S 1019,8 26 0 0,0
14.09.2018 03:00:00 6,9 5,9 3,0 10,8 14,7 16,1 3 1 5 3 SSE 1020,0 27 0 0,0
14.09.2018 02:00:00 7,1 6,8 5,3 11,2 15,1 16,1 3 1 4 2 S 1020,4 16 0 0,0
14.09.2018 01:00:00 6,6 6,1 2,7 11,5 15,5 16,1 3 1 5 3 ESE 1020,2 14 0 0,0
14.09.2018 00:00:00 4,9 4,2 2,7 12,2 16,0 16,1 3 2 4 2 S 1020,1 0,7 0 0,0
13.09.2018 23:00:00 7,7 7,3 2,4 13,0 16,5 16,1 3 1 4 2 SE 1020,2 1,6 0 0,0
13.09.2018 22:00:00 6,5 5,2 3,6 14,1 17,0 16,1 4 2 5 3 W 1020,2 18 0 0,0
13.09.2018 21:00:00 10,2 7,5 5,7 15,4 17,3 16,2 1 1 4 2 S 1020,0 42 0 0,0
13.09.2018 20:00:00 12,2 8,4 8,0 16,9 17,6 16,2 2 1 7 4 ESE 1020,1 26 25 0,0
13.09.2018 19:00:00 15,4 7,2 15,3 18,4 17,7 16,2 5 3 18 10 NW 1020,0 62 60 0,0
13.09.2018 18:00:00 16,2 7,3 17,3 19,6 17,6 16,2 11 6 23 13 WNW 1020,1 42 60 0,0
13.09.2018 17:00:00 17,0 8,4 18,7 20,6 17,3 16,2 14 8 22 12 WNW 1020,3 37 60 0,0
13.09.2018 16:00:00 17,7 9,2 21,0 21,1 16,8 16,2 14 8 25 14 WNW 1020,5 29 60 0,0
13.09.2018 15:00:00 16,8 8,4 19,8 20,5 16,4 16,2 11 6 22 12 N 1020,9 55 37 0,0
13.09.2018 14:00:00 16,3 7,9 17,5 19,7 15,9 16,2 9 5 20 11 NW 1021,2 51 14 0,0
13.09.2018 13:00:00 16,7 9,0 20,0 20,1 15,2 16,2 5 3 17 9 WNW 1021,5 49 39 0,0
13.09.2018 12:00:00 17,4 9,5 22,2 18,7 14,5 16,2 7 4 18 10 WSW 1021,8 40 41 0,0
13.09.2018 11:00:00 16,3 8,9 19,4 16,6 13,9 16,2 4 2 13 7 S 1022,1 49 54 0,0
13.09.2018 10:00:00 14,9 10,5 17,8 14,3 13,6 16,2 8 4 10 5 SSW 1022,1 31 48 0,0
13.09.2018 09:00:00 11,2 10,0 12,4 11,7 13,6 16,2 4 2 6 3 SSW 1022,1 11 11 0,0
13.09.2018 08:00:00 8,4 7,9 5,0 10,2 13,9 16,2 3 1 7 4 S 1021,9 0,6 0 0,0
13.09.2018 07:00:00 8,5 8,1 4,0 10,4 14,1 16,2 0 0 5 3 N 1021,5 0,2 0 0,0
13.09.2018 06:00:00 8,2 7,7 4,8 10,9 14,4 16,2 3 1 4 2 S 1021,5 0,2 0 0,0
13.09.2018 05:00:00 8,8 8,3 5,9 11,3 14,6 16,2 0 0 6 3 N 1021,1 0,5 0 0,0
13.09.2018 04:00:00 8,2 7,4 5,8 11,7 14,9 16,2 3 2 7 4 S 1021,3 0,6 0 0,0
13.09.2018 03:00:00 8,7 7,6 6,6 12,1 15,2 16,2 4 2 7 4 S 1021,3 15 0 0,0
13.09.2018 02:00:00 10,4 9,0 7,0 12,6 15,4 16,2 5 3 9 5 WSW 1021,2 33 0 0,0
13.09.2018 01:00:00 10,0 8,8 7,7 13,1 15,6 16,2 4 2 6 4 W 1021,2 43 0 0,0
13.09.2018 00:00:00 11,9 9,9 10,2 13,6 15,8 16,2 2 1 11 6 SW 1021,1 65 0 0,0
12.09.2018 23:00:00 12,7 9,4 9,7 13,8 16,1 16,2 5 3 12 6 WSW 1021,0 70 0 0,0
12.09.2018 22:00:00 12,9 9,6 10,7 14,3 16,3 16,2 9 5 15 8 W 1020,9 70 0 0,0
12.09.2018 21:00:00 13,7 9,7 12,5 14,8 16,6 16,2 11 6 17 9 W 1020,7 70 0 0,0
12.09.2018 20:00:00 14,0 9,7 12,9 15,4 16,8 16,3 12 7 24 13 W 1020,3 70 0 0,0
12.09.2018 19:00:00 14,9 8,9 14,2 16,2 16,9 16,3 15 8 32 17 WNW 1020,0 70 0 0,0
12.09.2018 18:00:00 15,5 10,5 15,3 16,9 16,9 16,3 19 11 31 17 W 1019,8 70 2 0,0
12.09.2018 17:00:00 15,7 10,8 16,0 17,4 16,9 16,3 22 12 33 18 WNW 1019,4 70 0 0,0

tt = Température de l'air
td = dewpoint
tt 5cm = Température de l'air 5cm
tt -5cm = Température de l'air -5cm
tt -20cm = Température de l'air -20cm
tt -100cm = Température de l'air -100cm
ff = Vitesse du vent
fx = gusts
dd = Direction du vent
ppp = reduced air pressure
vv = visibility
sd = Ensoleillement
rr = Quantités de précipitations

stations d'obs. à proximité